BLY5151 EGNT-EGNX

Flight info

Callsign BLY5151
Flight time 0h 46m
Altitude 23000
Route GIRLI P18 GASKO P16 CROFT DCT MCT DCT VEGAR DCT TNT DCT DIPSO DCT ROKUP
Aircraft RJ1H/M-SDFGIRWY/LB1

Departure

Time 2026-05-05 18:10
Airport Newcastle International Airport (EGNT)

Arrival

Time 2026-05-05 18:57
Airport East Midlands Airport (EGNX)
Time Latitude Longitude Altitude Speed Heading
2026-05-05 17:47 55.04041 -1.70407 267 ft 0 kts 310°
2026-05-05 18:00 55.04033 -1.70389 267 ft 3 kts 299°
2026-05-05 18:00 55.04024 -1.70360 267 ft 3 kts 296°
2026-05-05 18:00 55.04019 -1.70341 267 ft 3 kts 277°
2026-05-05 18:00 55.04029 -1.70319 267 ft 3 kts 190°
2026-05-05 18:01 55.04032 -1.70318 267 ft 0 kts 189°
2026-05-05 18:04 55.04028 -1.70319 267 ft 1 kts 189°
2026-05-05 18:04 55.04016 -1.70324 267 ft 3 kts 197°
2026-05-05 18:05 55.03989 -1.70353 267 ft 6 kts 215°
2026-05-05 18:05 55.03948 -1.70381 267 ft 7 kts 185°
2026-05-05 18:05 55.03897 -1.70386 267 ft 8 kts 183°
2026-05-05 18:05 55.03841 -1.70393 267 ft 8 kts 185°
2026-05-05 18:06 55.03787 -1.70416 267 ft 8 kts 199°
2026-05-05 18:06 55.03751 -1.70428 267 ft 8 kts 184°
2026-05-05 18:06 55.03678 -1.70437 267 ft 8 kts 185°
2026-05-05 18:06 55.03625 -1.70451 267 ft 8 kts 207°
2026-05-05 18:07 55.03596 -1.70520 267 ft 7 kts 258°
2026-05-05 18:07 55.03587 -1.70598 267 ft 6 kts 250°
2026-05-05 18:07 55.03557 -1.70640 267 ft 6 kts 190°
2026-05-05 18:07 55.03518 -1.70643 267 ft 6 kts 181°
2026-05-05 18:08 55.03476 -1.70645 267 ft 6 kts 181°
2026-05-05 18:08 55.03430 -1.70647 267 ft 7 kts 181°
2026-05-05 18:08 55.03383 -1.70633 268 ft 7 kts 146°
2026-05-05 18:08 55.03375 -1.70550 267 ft 8 kts 64°
2026-05-05 18:09 55.03378 -1.70540 267 ft 1 kts 64°
2026-05-05 18:09 55.03381 -1.70528 267 ft 0 kts 64°
2026-05-05 18:09 55.03462 -1.70227 264 ft 65 kts 65°
2026-05-05 18:10 55.03758 -1.69123 254 ft 130 kts 63°
2026-05-05 18:10 55.04161 -1.67542 652 ft 149 kts 65°
2026-05-05 18:10 55.04537 -1.65918 1595 ft 144 kts 78°
2026-05-05 18:10 55.04125 -1.64300 2223 ft 167 kts 137°
2026-05-05 18:11 55.02976 -1.63840 2861 ft 179 kts 189°
2026-05-05 18:11 55.01828 -1.64685 3560 ft 181 kts 206°
2026-05-05 18:11 55.00658 -1.65684 4044 ft 198 kts 207°
2026-05-05 18:11 54.99361 -1.66835 4421 ft 217 kts 209°
2026-05-05 18:12 54.98028 -1.68031 5362 ft 214 kts 209°
2026-05-05 18:12 54.96684 -1.69061 6432 ft 211 kts 199°
2026-05-05 18:12 54.95439 -1.69607 7187 ft 212 kts 197°
2026-05-05 18:12 54.93947 -1.70187 7373 ft 229 kts 195°
2026-05-05 18:13 54.92332 -1.70780 7468 ft 246 kts 195°
2026-05-05 18:13 54.90606 -1.71395 7597 ft 259 kts 194°
2026-05-05 18:13 54.88824 -1.72024 7882 ft 263 kts 194°
2026-05-05 18:13 54.86998 -1.72670 8053 ft 271 kts 194°
2026-05-05 18:14 54.85182 -1.73318 8087 ft 263 kts 194°
2026-05-05 18:14 54.83390 -1.73972 8091 ft 264 kts 195°
2026-05-05 18:14 54.81554 -1.74657 8115 ft 278 kts 194°
2026-05-05 18:14 54.79627 -1.75379 8311 ft 285 kts 195°
2026-05-05 18:15 54.77677 -1.76105 8622 ft 287 kts 195°
2026-05-05 18:15 54.75724 -1.76835 8956 ft 288 kts 194°
2026-05-05 18:15 54.73758 -1.77570 9290 ft 290 kts 195°
2026-05-05 18:15 54.71785 -1.78312 9607 ft 291 kts 195°
2026-05-05 18:16 54.69802 -1.79056 9939 ft 292 kts 195°
2026-05-05 18:16 54.67816 -1.79798 10236 ft 293 kts 195°
2026-05-05 18:16 54.65820 -1.80539 10541 ft 293 kts 195°
2026-05-05 18:16 54.63817 -1.81278 10832 ft 295 kts 195°
2026-05-05 18:17 54.61815 -1.82022 11121 ft 295 kts 195°
2026-05-05 18:17 54.59831 -1.82764 11412 ft 296 kts 195°
2026-05-05 18:17 54.57788 -1.83527 11701 ft 297 kts 195°
2026-05-05 18:17 54.55780 -1.84280 11823 ft 304 kts 195°
2026-05-05 18:18 54.53677 -1.85071 11830 ft 315 kts 195°
2026-05-05 18:18 54.51506 -1.85885 11844 ft 324 kts 195°
2026-05-05 18:18 54.49273 -1.86719 11899 ft 332 kts 195°
2026-05-05 18:18 54.47014 -1.87555 12110 ft 333 kts 195°
2026-05-05 18:19 54.44740 -1.88392 12352 ft 334 kts 195°
2026-05-05 18:19 54.42464 -1.89233 12602 ft 335 kts 195°
2026-05-05 18:19 54.40177 -1.90054 12838 ft 336 kts 194°
2026-05-05 18:19 54.37874 -1.90799 13075 ft 338 kts 193°
2026-05-05 18:20 54.35555 -1.91503 13322 ft 339 kts 193°
2026-05-05 18:20 54.33220 -1.92205 13568 ft 340 kts 193°
2026-05-05 18:20 54.30891 -1.92914 13827 ft 341 kts 193°
2026-05-05 18:20 54.28545 -1.93633 14043 ft 342 kts 193°
2026-05-05 18:21 54.26196 -1.94350 14276 ft 343 kts 193°
2026-05-05 18:21 54.23843 -1.95075 14508 ft 344 kts 194°
2026-05-05 18:21 54.21648 -1.96514 14705 ft 337 kts 218°
2026-05-05 18:21 54.19886 -1.99112 14905 ft 335 kts 226°
2026-05-05 18:22 54.18202 -2.01881 15148 ft 336 kts 227°
2026-05-05 18:22 54.16534 -2.04685 15379 ft 337 kts 227°
2026-05-05 18:22 54.14865 -2.07517 15625 ft 338 kts 227°
2026-05-05 18:22 54.13209 -2.10298 15841 ft 340 kts 227°
2026-05-05 18:23 54.11513 -2.13102 16073 ft 341 kts 226°
2026-05-05 18:23 54.09768 -2.15930 16316 ft 342 kts 226°
2026-05-05 18:23 54.08059 -2.18670 16548 ft 343 kts 225°
2026-05-05 18:23 54.06295 -2.21485 16772 ft 344 kts 225°
2026-05-05 18:24 54.04567 -2.24239 17003 ft 345 kts 225°
2026-05-05 18:24 54.02783 -2.27040 17230 ft 347 kts 222°
2026-05-05 18:24 54.00756 -2.29243 17430 ft 352 kts 209°
2026-05-05 18:24 53.98527 -2.30990 17663 ft 354 kts 206°
2026-05-05 18:25 53.96214 -2.32587 17890 ft 356 kts 204°
2026-05-05 18:25 53.94674 -2.33575 18051 ft 356 kts 203°
2026-05-05 18:25 53.91584 -2.35500 18340 ft 358 kts 202°
2026-05-05 18:25 53.89242 -2.36936 18547 ft 359 kts 202°
2026-05-05 18:26 53.86910 -2.38397 18756 ft 359 kts 203°
2026-05-05 18:26 53.84568 -2.39878 18963 ft 360 kts 203°
2026-05-05 18:26 53.82255 -2.41342 19485 ft 351 kts 203°
2026-05-05 18:26 53.79967 -2.42787 19773 ft 350 kts 203°
2026-05-05 18:27 53.77681 -2.44231 19984 ft 352 kts 203°
2026-05-05 18:27 53.75382 -2.45689 20332 ft 353 kts 203°
2026-05-05 18:27 53.73076 -2.47159 20669 ft 355 kts 204°
2026-05-05 18:27 53.70761 -2.48641 21009 ft 357 kts 203°
2026-05-05 18:28 53.66093 -2.51609 21668 ft 360 kts 203°
2026-05-05 18:28 53.63650 -2.52624 21945 ft 367 kts 184°
2026-05-05 18:28 53.61122 -2.51893 22242 ft 376 kts 161°
2026-05-05 18:29 53.58740 -2.49990 22537 ft 380 kts 154°
2026-05-05 18:29 53.56441 -2.47751 22833 ft 382 kts 151°
2026-05-05 18:29 53.54173 -2.45384 22983 ft 384 kts 150°
2026-05-05 18:29 53.51934 -2.42976 23026 ft 385 kts 149°
2026-05-05 18:30 53.49669 -2.40518 23019 ft 388 kts 149°
2026-05-05 18:30 53.47380 -2.38073 23022 ft 394 kts 150°
2026-05-05 18:30 53.45033 -2.35625 23024 ft 400 kts 150°
2026-05-05 18:30 53.42637 -2.33173 22924 ft 407 kts 151°
2026-05-05 18:31 53.40211 -2.30710 22667 ft 403 kts 151°
2026-05-05 18:31 53.37860 -2.28330 22402 ft 390 kts 151°
2026-05-05 18:31 53.35547 -2.25999 21979 ft 387 kts 152°
2026-05-05 18:31 53.33231 -2.23768 21505 ft 373 kts 153°
2026-05-05 18:32 53.31059 -2.21724 21046 ft 341 kts 153°
2026-05-05 18:32 53.29017 -2.19848 20545 ft 331 kts 154°
2026-05-05 18:32 53.26981 -2.18002 19942 ft 335 kts 154°
2026-05-05 18:32 53.24980 -2.16192 19334 ft 331 kts 154°
2026-05-05 18:33 53.22990 -2.14364 18170 ft 338 kts 153°
2026-05-05 18:33 53.20852 -2.12412 18038 ft 358 kts 153°
2026-05-05 18:33 53.18754 -2.10495 17380 ft 328 kts 153°
2026-05-05 18:33 53.16802 -2.08708 16495 ft 317 kts 153°
2026-05-05 18:34 53.14882 -2.06949 15748 ft 316 kts 153°
2026-05-05 18:34 53.12931 -2.05145 15019 ft 327 kts 152°
2026-05-05 18:34 53.10915 -2.03284 14303 ft 334 kts 152°
2026-05-05 18:34 53.08884 -2.01413 13609 ft 325 kts 152°
2026-05-05 18:35 53.06979 -1.99660 12826 ft 304 kts 152°
2026-05-05 18:35 53.05274 -1.97641 12075 ft 304 kts 131°
2026-05-05 18:35 53.04309 -1.94567 11358 ft 301 kts 101°
2026-05-05 18:35 53.04215 -1.91144 10655 ft 296 kts 85°
2026-05-05 18:36 53.04362 -1.87754 9964 ft 293 kts 83°
2026-05-05 18:36 53.04550 -1.84397 9206 ft 289 kts 82°
2026-05-05 18:36 53.04755 -1.81115 8445 ft 277 kts 83°
2026-05-05 18:36 53.04952 -1.77944 8139 ft 276 kts 83°
2026-05-05 18:37 53.05125 -1.74784 8031 ft 273 kts 83°
2026-05-05 18:37 53.05275 -1.71639 8003 ft 273 kts 84°
2026-05-05 18:37 53.05404 -1.68482 8003 ft 274 kts 85°
2026-05-05 18:37 53.05503 -1.65324 8002 ft 274 kts 87°
2026-05-05 18:38 53.05526 -1.62170 7994 ft 271 kts 89°
2026-05-05 18:38 53.05521 -1.59113 7987 ft 257 kts 89°
2026-05-05 18:38 53.05504 -1.56228 8010 ft 242 kts 89°
2026-05-05 18:38 53.05484 -1.53553 8056 ft 225 kts 89°
2026-05-05 18:39 53.05463 -1.50953 8059 ft 225 kts 89°
2026-05-05 18:39 53.05450 -1.48341 8053 ft 226 kts 89°
2026-05-05 18:39 53.05441 -1.45724 8036 ft 226 kts 89°
2026-05-05 18:39 53.05434 -1.43143 8024 ft 226 kts 89°
2026-05-05 18:40 53.05425 -1.40498 8010 ft 226 kts 89°
2026-05-05 18:40 53.05546 -1.37980 7987 ft 213 kts 68°
2026-05-05 18:40 53.06418 -1.36216 7970 ft 196 kts 25°
2026-05-05 18:40 53.07722 -1.35952 7983 ft 191 kts 342°
2026-05-05 18:41 53.08737 -1.37267 7997 ft 190 kts 298°
2026-05-05 18:41 53.08890 -1.39407 8011 ft 193 kts 255°
2026-05-05 18:41 53.08075 -1.41162 8015 ft 200 kts 211°
2026-05-05 18:41 53.06719 -1.41566 8026 ft 205 kts 169°
2026-05-05 18:42 53.05360 -1.40805 8035 ft 208 kts 160°
2026-05-05 18:42 53.04013 -1.39946 8025 ft 207 kts 160°
2026-05-05 18:42 53.02651 -1.39159 8005 ft 207 kts 163°
2026-05-05 18:42 53.01295 -1.38400 7929 ft 201 kts 154°
2026-05-05 18:43 53.00135 -1.37274 7804 ft 188 kts 148°
2026-05-05 18:43 52.99042 -1.36109 7683 ft 186 kts 147°
2026-05-05 18:43 52.97963 -1.34927 7579 ft 185 kts 147°
2026-05-05 18:43 52.96895 -1.33748 7473 ft 184 kts 147°
2026-05-05 18:44 52.95831 -1.32576 7328 ft 186 kts 147°
2026-05-05 18:44 52.94736 -1.31390 6946 ft 187 kts 147°
2026-05-05 18:44 52.93650 -1.30228 6581 ft 185 kts 148°
2026-05-05 18:44 52.92576 -1.29089 6197 ft 183 kts 148°
2026-05-05 18:45 52.91503 -1.27962 5778 ft 182 kts 147°
2026-05-05 18:45 52.90432 -1.26848 5371 ft 181 kts 147°
2026-05-05 18:45 52.89365 -1.25745 4965 ft 181 kts 146°
2026-05-05 18:45 52.88300 -1.24646 4546 ft 180 kts 146°
2026-05-05 18:46 52.87236 -1.23555 4199 ft 177 kts 146°
2026-05-05 18:46 52.86228 -1.22523 4041 ft 170 kts 144°
2026-05-05 18:46 52.85235 -1.21511 3986 ft 166 kts 144°
2026-05-05 18:46 52.84226 -1.20730 3937 ft 162 kts 174°
2026-05-05 18:47 52.83189 -1.21350 3951 ft 165 kts 227°
2026-05-05 18:47 52.82798 -1.23032 3990 ft 159 kts 273°
2026-05-05 18:47 52.82798 -1.24868 3976 ft 161 kts 274°
2026-05-05 18:47 52.82804 -1.26717 3852 ft 160 kts 275°
2026-05-05 18:48 52.82818 -1.27953 3752 ft 159 kts 276°
2026-05-05 18:48 52.82839 -1.29784 3625 ft 159 kts 276°
2026-05-05 18:48 52.82858 -1.31623 3496 ft 161 kts 275°
2026-05-05 18:48 52.82870 -1.33456 3366 ft 161 kts 275°
2026-05-05 18:49 52.82884 -1.35299 3231 ft 160 kts 275°
2026-05-05 18:49 52.82892 -1.37165 3101 ft 162 kts 274°
2026-05-05 18:49 52.82894 -1.38991 3034 ft 158 kts 274°
2026-05-05 18:49 52.82888 -1.40820 2998 ft 158 kts 274°
2026-05-05 18:50 52.82869 -1.42676 2999 ft 160 kts 273°
2026-05-05 18:50 52.82841 -1.44499 3010 ft 160 kts 271°
2026-05-05 18:50 52.82399 -1.46168 3004 ft 165 kts 233°
2026-05-05 18:50 52.81672 -1.47697 2969 ft 168 kts 232°
2026-05-05 18:51 52.80937 -1.49157 2877 ft 168 kts 231°
2026-05-05 18:51 52.80168 -1.50617 2739 ft 168 kts 230°
2026-05-05 18:51 52.79394 -1.52059 2598 ft 167 kts 229°
2026-05-05 18:51 52.78912 -1.53750 2429 ft 162 kts 273°
2026-05-05 18:52 52.79337 -1.55306 2278 ft 146 kts 327°
2026-05-05 18:52 52.80228 -1.56039 2161 ft 143 kts 343°
2026-05-05 18:52 52.81174 -1.56574 2048 ft 143 kts 347°
2026-05-05 18:52 52.82100 -1.56474 2013 ft 136 kts 36°
2026-05-05 18:53 52.82499 -1.55056 2035 ft 145 kts 78°
2026-05-05 18:53 52.82648 -1.53422 2018 ft 143 kts 77°
2026-05-05 18:53 52.82745 -1.51875 1981 ft 126 kts 81°
2026-05-05 18:53 52.82794 -1.50454 2002 ft 124 kts 83°
2026-05-05 18:54 52.82823 -1.49015 2024 ft 125 kts 84°
2026-05-05 18:54 52.82842 -1.47552 1945 ft 131 kts 84°
2026-05-05 18:54 52.82856 -1.46038 1750 ft 131 kts 83°
2026-05-05 18:54 52.82881 -1.44539 1578 ft 129 kts 83°
2026-05-05 18:55 52.82913 -1.43058 1392 ft 129 kts 84°
2026-05-05 18:55 52.82936 -1.41596 1207 ft 126 kts 83°
2026-05-05 18:55 52.82961 -1.40156 1001 ft 126 kts 83°
2026-05-05 18:55 52.82973 -1.38744 825 ft 121 kts 83°
2026-05-05 18:56 52.83014 -1.37369 686 ft 121 kts 81°
2026-05-05 18:56 52.83045 -1.35943 525 ft 124 kts 82°
2026-05-05 18:56 52.83066 -1.34538 346 ft 122 kts 84°
2026-05-05 18:56 52.83098 -1.33244 307 ft 99 kts 86°
2026-05-05 18:57 52.83105 -1.32458 302 ft 49 kts 88°
2026-05-05 18:57 52.83115 -1.31946 299 ft 41 kts 89°
2026-05-05 18:57 52.83123 -1.31517 297 ft 35 kts 89°
2026-05-05 18:57 52.83068 -1.31324 295 ft 16 kts 176°
2026-05-05 18:58 52.82965 -1.31351 296 ft 15 kts 240°
2026-05-05 18:58 52.82954 -1.31510 295 ft 13 kts 268°
2026-05-05 18:58 52.82949 -1.31655 296 ft 13 kts 254°
2026-05-05 18:58 52.82886 -1.31738 300 ft 12 kts 251°
2026-05-05 18:59 52.82881 -1.31877 297 ft 12 kts 267°
2026-05-05 18:59 52.82849 -1.31981 300 ft 11 kts 183°
2026-05-05 18:59 52.82795 -1.31978 285 ft 0 kts 178°